| Date | Time | Temp. (oF) | Dew Point (oF) | Rel. Hum. (%) | Press. (in.) | Wind Dir. | Wind Speed (mph) | Hourly Rainfall (in.) |
|
|---|---|---|---|---|---|---|---|---|---|
| 1 | 10/11 | 00:00 | 60 | 59 | 100 | 30.23 | SE | 4 | 0.00 |
| 2 | 10/10 | 23:00 | 61 | 60 | 100 | 30.24 | SSW | 7 | 0.05 |
| 3 | 10/10 | 22:00 | 61 | 60 | 100 | 30.24 | ESE | 8 | 0.07 |
| 4 | 10/10 | 21:00 | 61 | 60 | 100 | 30.24 | SE | 1 | 0.02 |
| 5 | 10/10 | 20:00 | 62 | 62 | 100 | 30.24 | E | 2 | 0.06 |
| 6 | 10/10 | 19:00 | 62 | 62 | 100 | 30.25 | ENE | 0 | 0.08 |
| 7 | 10/10 | 18:00 | 62 | 62 | 100 | 30.25 | SSE | 3 | 0.04 |
| 8 | 10/10 | 17:00 | 62 | 62 | 100 | 30.24 | SE | 4 | 0.05 |
| 9 | 10/10 | 16:00 | 63 | 63 | 100 | 30.24 | E | 6 | 0.02 |
| 10 | 10/10 | 15:00 | 63 | 63 | 100 | 30.25 | E | 3 | 0.05 |
| 11 | 10/10 | 14:00 | 62 | 62 | 100 | 30.27 | NNE | 4 | 0.03 |
| 12 | 10/10 | 13:00 | 62 | 62 | 100 | 30.29 | E | 3 | 0.01 |
| 13 | 10/10 | 12:00 | 62 | 62 | 100 | 30.30 | NE | 5 | 0.00 |
| 14 | 10/10 | 11:00 | 60 | 59 | 100 | 30.31 | ENE | 2 | 0.00 |
| 15 | 10/10 | 10:00 | 60 | 59 | 100 | 30.31 | NNE | 2 | 0.01 |
| 16 | 10/10 | 09:00 | 59 | 59 | 100 | 30.30 | ESE | 1 | 0.01 |
| 17 | 10/10 | 08:00 | 59 | 59 | 100 | 30.29 | ENE | 5 | 0.00 |
| 18 | 10/10 | 07:00 | 59 | 59 | 100 | 30.28 | NE | 2 | 0.00 |
| 19 | 10/10 | 06:00 | 58 | 58 | 100 | 30.28 | N | 2 | 0.00 |
| 20 | 10/10 | 05:00 | 58 | 58 | 100 | 30.27 | E | 0 | 0.00 |
| 21 | 10/10 | 04:00 | 58 | 58 | 100 | 30.26 | NNE | 3 | 0.00 |
| 22 | 10/10 | 03:00 | 59 | 58 | 99 | 30.26 | E | 1 | 0.00 |
| 23 | 10/10 | 02:00 | 59 | 58 | 98 | 30.29 | E | 3 | 0.00 |
| 24 | 10/10 | 01:00 | 60 | 58 | 94 | 30.29 | ESE | 1 | 0.00 |